When you browse on this site, cookies collect data to enhance your experience and personalize the content and advertising you see.
Visit our Privacy Policy to learn more. By continuing to use the site, you agree to this use of cookies and data.
  • In Österreich
  • Länderverzeichnis
  • Für 7 Tage
  • Wassertemperatur
  • Satellitenkarten
  • Wetterkarte
  • News
  • Widgets
  • user-avatar
    Anmelden

    Stündliche Wetter Strychy

    Heute, 18 Februar, Montag

    Zeit Temperatur Niederschläge Wind Luftdruck Luftfeuchtigkeit
    00:00 +5°C° 0 mm 2 m/S 762 mmHg 86%
    01:00 +5°C° 0 mm 2 m/S 762 mmHg 86%
    02:00 +4°C° 0 mm 2 m/S 762 mmHg 85%
    03:00 +4°C° 0 mm 2 m/S 762 mmHg 85%
    04:00 +4°C° 0 mm 2 m/S 761 mmHg 84%
    05:00 +3°C° 0 mm 2 m/S 761 mmHg 83%
    06:00 +3°C° 0 mm 2 m/S 761 mmHg 83%
    07:00 +3°C° 0 mm 2 m/S 761 mmHg 82%
    08:00 +4°C° 0 mm 2 m/S 761 mmHg 77%
    09:00 +6°C° 0 mm 2 m/S 761 mmHg 71%
    10:00 +7°C° 0 mm 2 m/S 761 mmHg 65%
    11:00 +8°C° 0 mm 2 m/S 761 mmHg 61%
    12:00 +10°C° 0 mm 2 m/S 760 mmHg 57%
    13:00 +12°C° 0 mm 2 m/S 760 mmHg 52%
    14:00 +12°C° 0 mm 2 m/S 760 mmHg 54%
    15:00 +12°C° 0 mm 2 m/S 760 mmHg 55%
    16:00 +12°C° 0 mm 2 m/S 759 mmHg 57%
    17:00 +10°C° 0 mm 2 m/S 759 mmHg 61%
    18:00 +8°C° 0 mm 2 m/S 759 mmHg 66%
    19:00 +7°C° 0 mm 2 m/S 759 mmHg 71%
    20:00 +7°C° 0 mm 2 m/S 758 mmHg 72%
    21:00 +6°C° 0 mm 2 m/S 758 mmHg 74%
    22:00 +6°C° 0 mm 2 m/S 758 mmHg 76%
    23:00 +5°C° 0 mm 2 m/S 758 mmHg 76%

    Morgen, 19 Februar, Dienstag

    Zeit Temperatur Niederschläge Wind Luftdruck Luftfeuchtigkeit
    00:00 +5°C° 0 mm 2 m/S 758 mmHg 77%
    01:00 +4°C° 0 mm 2 m/S 758 mmHg 77%
    02:00 +3°C° 0 mm 3 m/S 757 mmHg 78%
    03:00 +3°C° 0 mm 3 m/S 757 mmHg 79%
    04:00 +3°C° 0 mm 3 m/S 756 mmHg 80%
    05:00 +3°C° 0 mm 3 m/S 756 mmHg 80%
    06:00 +3°C° 0 mm 3 m/S 756 mmHg 81%
    07:00 +1°C° 0 mm 4 m/S 755 mmHg 81%
    08:00 +4°C° 0 mm 4 m/S 755 mmHg 76%
    09:00 +5°C° 0 mm 5 m/S 755 mmHg 71%
    10:00 +7°C° 0 mm 5 m/S 755 mmHg 65%
    11:00 +7°C° 0 mm 5 m/S 755 mmHg 65%
    12:00 +8°C° 0 mm 5 m/S 755 mmHg 64%
    13:00 +9°C° 0 mm 5 m/S 755 mmHg 63%
    14:00 +9°C° 0.1 mm 5 m/S 755 mmHg 68%
    15:00 +8°C° 0.1 mm 5 m/S 755 mmHg 73%
    16:00 +7°C° 0.1 mm 5 m/S 755 mmHg 78%
    17:00 +7°C° 0.2 mm 4 m/S 756 mmHg 80%
    18:00 +6°C° 0.2 mm 4 m/S 756 mmHg 83%
    19:00 +6°C° 0.2 mm 4 m/S 756 mmHg 86%
    20:00 +6°C° 0 mm 4 m/S 756 mmHg 83%
    21:00 +5°C° 0 mm 4 m/S 757 mmHg 80%
    22:00 +5°C° 0 mm 4 m/S 757 mmHg 78%
    23:00 +5°C° 0 mm 4 m/S 757 mmHg 79%

    übermorgen, 20 Februar, Mittwoch

    Zeit Temperatur Niederschläge Wind Luftdruck Luftfeuchtigkeit
    00:00 +5°C° 0 mm 4 m/S 757 mmHg 81%
    01:00 +4°C° 0 mm 4 m/S 758 mmHg 83%
    02:00 +4°C° 0 mm 4 m/S 758 mmHg 86%
    03:00 +4°C° 0 mm 4 m/S 758 mmHg 88%
    04:00 +3°C° 0 mm 4 m/S 758 mmHg 91%
    05:00 +3°C° 0 mm 4 m/S 758 mmHg 91%
    06:00 +3°C° 0 mm 4 m/S 758 mmHg 91%
    07:00 +3°C° 0 mm 4 m/S 758 mmHg 91%
    08:00 +4°C° 0 mm 4 m/S 759 mmHg 88%
    09:00 +3°C° 0 mm 5 m/S 759 mmHg 85%
    10:00 +3°C° 0 mm 5 m/S 759 mmHg 81%
    11:00 +5°C° 0 mm 5 m/S 759 mmHg 79%
    12:00 +5°C° 0 mm 5 m/S 760 mmHg 76%
    13:00 +6°C° 0 mm 5 m/S 760 mmHg 73%
    14:00 +6°C° 0 mm 4 m/S 760 mmHg 71%
    15:00 +7°C° 0 mm 4 m/S 760 mmHg 68%
    16:00 +7°C° 0 mm 4 m/S 760 mmHg 66%
    17:00 +8°C° 0 mm 3 m/S 760 mmHg 70%
    18:00 +7°C° 0 mm 3 m/S 760 mmHg 73%
    19:00 +7°C° 0 mm 3 m/S 761 mmHg 77%
    20:00 +5°C° 0 mm 3 m/S 761 mmHg 79%
    21:00 +5°C° 0 mm 3 m/S 761 mmHg 81%
    22:00 +4°C° 0 mm 3 m/S 761 mmHg 83%
    23:00 +4°C° 0.1 mm 3 m/S 761 mmHg 83%

    21 Februar, Donnerstag

    Zeit Temperatur Niederschläge Wind Luftdruck Luftfeuchtigkeit
    00:00 +5°C° 0.1 mm 3 m/S 761 mmHg 83%
    01:00 +5°C° 0.1 mm 3 m/S 761 mmHg 83%
    02:00 +5°C° 0.2 mm 4 m/S 761 mmHg 84%
    03:00 +5°C° 0.2 mm 4 m/S 761 mmHg 85%
    04:00 +5°C° 0.2 mm 4 m/S 761 mmHg 86%
    05:00 +5°C° 0 mm 4 m/S 761 mmHg 87%
    06:00 +5°C° 0 mm 4 m/S 761 mmHg 88%
    07:00 +5°C° 0 mm 4 m/S 761 mmHg 89%
    08:00 +5°C° 0.3 mm 4 m/S 761 mmHg 89%
    09:00 +6°C° 0.3 mm 4 m/S 761 mmHg 88%
    10:00 +6°C° 0.3 mm 4 m/S 761 mmHg 88%
    11:00 +6°C° 0.5 mm 4 m/S 761 mmHg 89%
    12:00 +6°C° 0.5 mm 4 m/S 761 mmHg 89%
    13:00 +6°C° 0.5 mm 4 m/S 761 mmHg 90%
    14:00 +7°C° 0.1 mm 3 m/S 761 mmHg 91%
    15:00 +7°C° 0.1 mm 3 m/S 761 mmHg 91%
    16:00 +8°C° 0.1 mm 3 m/S 761 mmHg 92%
    17:00 +7°C° 0.1 mm 2 m/S 762 mmHg 93%
    18:00 +7°C° 0.1 mm 2 m/S 762 mmHg 95%
    19:00 +7°C° 0.1 mm 2 m/S 763 mmHg 97%
    20:00 +6°C° 0 mm 2 m/S 764 mmHg 97%
    21:00 +6°C° 0 mm 2 m/S 764 mmHg 97%
    22:00 +5°C° 0 mm 2 m/S 765 mmHg 97%
    23:00 +5°C° 0 mm 2 m/S 765 mmHg 97%

    22 Februar, Freitag

    Zeit Temperatur Niederschläge Wind Luftdruck Luftfeuchtigkeit
    00:00 +4°C° 0 mm 2 m/S 766 mmHg 97%
    01:00 +4°C° 0 mm 2 m/S 767 mmHg 97%
    02:00 +4°C° 0 mm 2 m/S 767 mmHg 97%
    03:00 +4°C° 0 mm 2 m/S 768 mmHg 97%
    04:00 +4°C° 0 mm 2 m/S 768 mmHg 96%
    05:00 +4°C° 0 mm 2 m/S 769 mmHg 96%
    06:00 +4°C° 0 mm 2 m/S 769 mmHg 95%
    07:00 +4°C° 0 mm 2 m/S 770 mmHg 94%
    08:00 +4°C° 0 mm 2 m/S 771 mmHg 91%
    09:00 +5°C° 0 mm 2 m/S 771 mmHg 89%
    10:00 +6°C° 0 mm 1 m/S 772 mmHg 87%
    11:00 +7°C° 0 mm 1 m/S 772 mmHg 84%
    12:00 +7°C° 0 mm 1 m/S 772 mmHg 82%
    13:00 +7°C° 0 mm 1 m/S 773 mmHg 79%
    14:00 +8°C° 0 mm 1 m/S 773 mmHg 78%
    15:00 +8°C° 0 mm 1 m/S 773 mmHg 76%
    16:00 +8°C° 0 mm 1 m/S 773 mmHg 75%
    17:00 +7°C° 0 mm 1 m/S 774 mmHg 78%
    18:00 +5°C° 0 mm 0 m/S 774 mmHg 80%
    19:00 +5°C° 0 mm 0 m/S 775 mmHg 83%
    20:00 +4°C° 0 mm 0 m/S 775 mmHg 83%
    21:00 +4°C° 0 mm 0 m/S 775 mmHg 84%
    22:00 +3°C° 0 mm 0 m/S 775 mmHg 85%
    23:00 +3°C° 0 mm 0 m/S 776 mmHg 86%

    23 Februar, Samstag

    Zeit Temperatur Niederschläge Wind Luftdruck Luftfeuchtigkeit
    00:00 +3°C° 0 mm 0 m/S 776 mmHg 87%
    01:00 +3°C° 0 mm 0 m/S 776 mmHg 88%
    02:00 +2°C° 0 mm 0 m/S 776 mmHg 89%
    03:00 +2°C° 0 mm 0 m/S 776 mmHg 90%
    04:00 +2°C° 0 mm 0 m/S 776 mmHg 91%
    05:00 +3°C° 0 mm 1 m/S 776 mmHg 92%
    06:00 +3°C° 0 mm 1 m/S 776 mmHg 92%
    07:00 +3°C° 0 mm 1 m/S 776 mmHg 93%
    08:00 +4°C° 0 mm 1 m/S 776 mmHg 88%
    09:00 +5°C° 0 mm 1 m/S 776 mmHg 83%
    10:00 +6°C° 0 mm 2 m/S 776 mmHg 78%
    11:00 +7°C° 0 mm 2 m/S 776 mmHg 73%
    12:00 +8°C° 0 mm 2 m/S 775 mmHg 68%
    13:00 +9°C° 0 mm 2 m/S 775 mmHg 63%
    14:00 +10°C° 0 mm 2 m/S 775 mmHg 63%
    15:00 +10°C° 0 mm 2 m/S 774 mmHg 64%
    16:00 +10°C° 0 mm 2 m/S 774 mmHg 64%
    17:00 +9°C° 0 mm 2 m/S 774 mmHg 70%
    18:00 +8°C° 0 mm 2 m/S 774 mmHg 76%
    19:00 +6°C° 0 mm 2 m/S 774 mmHg 82%
    20:00 +6°C° 0 mm 2 m/S 774 mmHg 84%
    21:00 +6°C° 0 mm 2 m/S 774 mmHg 86%
    22:00 +5°C° 0 mm 2 m/S 774 mmHg 88%
    23:00 +5°C° 0 mm 2 m/S 773 mmHg 89%
    Mehr zeigen